Torna al catalogo

ONEWEB-0618

AttivoComunicazioniPO
NORAD 55159·PAYLOAD·🇬🇧 United Kingdom

Lanciato Jan 10, 2023 da Cape Canaveral Space Force Station

Loading…

Prossimi Passaggi (prossime 24 ore)

TLE

AggiornatoSource: CelesTrak SupGP

Epoca: Sep 14, 2026, 14:14 UTC

1 55159C 23004V   26257.59355738  .00006283  00000+0  34789-3 0  2570
2 55159  86.9085 141.3295 0010857 333.9649 101.9671 15.13885909    11

Traccia ONEWEB-0618 in tempo reale con AllMySat

Download on the App Store